(410) Chloris
ephemeris date magn radius delta ra dec elong phase
Today19 Apr 202413.32.163 AU2.528 AU22h21m-15°30'57.6°23.1°
Opposition15 Sep 202411.92.497 AU1.520 AU00h02m-19°00'162.3°7.0°
(410) Chloris - 2024-04-19
astro.vanbuitenen.nl


 
-1 year
-1 month
-1 day
Now
+1 day
+1 month
+1 year

The interactive orbit chart above shows the body's path through the solar system and its position at the given date. Green and blue lines are shown perpendicular to the ecliptic plane: Green if the path is above the ecliptic plane, blue if it is below. (Left-click and drag to rotate the view; Right-click and drag to move the view; Use scroll wheel to zoom in our out.)

The orbital elements of Chloris are:

            e (Eccentricity)                : 0.2408303
            a (Semimajor axis)              : 2.7245303
            i (Inclination)                 : 10.96337
            Ω (Longitude of ascending node) : 96.91702
            ω (Argument of perihelion)      : 172.76845
            M (Mean anomaly)                : 19.85542
            Epoch                           : 2024 Mar 31

            L (Longitude of perihelion)     : 89.81609
            B (Latitude of perihelion)      : 1.37179
            P (Orbital period in years)     : 4.50            
        

The light curve chart below shows the estimated development of the minor planet's magnitude.


The all-sky chart below shows the path of the minor planet over the same period as the light curve. The current position is marked yellow.





The following chart shows the path of the minor planet in the next few days. The field of view is optimized for (~10x50) binoculars and finderscopes. A more printer-friendly version of the same chart can be found below.




Ephemerides:
Date       Time       RA (2000)    DEC (2000)    delta   radius  elong  phase   PA    magn
2024-04-19 00:00 UT   22 21 50.9   -15 30 57     2.528    2.163   57.6   23.1   246   13.3 
2024-04-19 18:21 UT   22 23 17.4   -15 26 03     2.522    2.164   58.0   23.2   246   13.3 
2024-04-20 00:00 UT   22 23 44.0   -15 24 33     2.520    2.165   58.1   23.2   245   13.3 
2024-04-21 00:00 UT   22 25 36.6   -15 18 11     2.512    2.166   58.6   23.3   245   13.3 
2024-04-22 00:00 UT   22 27 28.6   -15 11 51     2.504    2.168   59.2   23.5   245   13.3 
2024-04-23 00:00 UT   22 29 20.1   -15 05 32     2.496    2.170   59.7   23.6   245   13.3 
2024-04-24 00:00 UT   22 31 11.0   -14 59 15     2.488    2.171   60.2   23.7   245   13.3 
2024-04-25 00:00 UT   22 33 01.3   -14 53 01     2.480    2.173   60.7   23.8   245   13.3 
2024-04-26 00:00 UT   22 34 51.0   -14 46 49     2.472    2.175   61.2   23.9   245   13.3 
2024-04-27 00:00 UT   22 36 40.2   -14 40 39     2.464    2.176   61.8   24.0   245   13.3 
2024-04-28 00:00 UT   22 38 28.8   -14 34 32     2.456    2.178   62.3   24.2   245   13.2 
2024-04-29 00:00 UT   22 40 16.8   -14 28 27     2.447    2.180   62.8   24.3   245   13.2 
2024-04-30 00:00 UT   22 42 04.1   -14 22 25     2.439    2.182   63.4   24.4   245   13.2 
2024-05-01 00:00 UT   22 43 50.9   -14 16 26     2.431    2.183   63.9   24.5   245   13.2 
2024-05-02 00:00 UT   22 45 37.1   -14 10 30     2.422    2.185   64.4   24.6   245   13.2 
2024-05-03 00:00 UT   22 47 22.7   -14 04 37     2.414    2.187   65.0   24.7   245   13.2 
2024-05-04 00:00 UT   22 49 07.6   -13 58 48     2.406    2.189   65.5   24.8   245   13.2 
2024-05-05 00:00 UT   22 50 51.9   -13 53 01     2.397    2.191   66.0   24.9   245   13.2 
2024-05-06 00:00 UT   22 52 35.6   -13 47 19     2.389    2.192   66.6   25.0   245   13.2 
2024-05-07 00:00 UT   22 54 18.7   -13 41 40     2.380    2.194   67.1   25.1   245   13.2 
2024-05-08 00:00 UT   22 56 01.1   -13 36 06     2.371    2.196   67.7   25.2   245   13.2 


    Terminology:
            
    delta:  distance between minor planet and earth in AU
    radius: distance between minor planet and sun in AU
    magn:   magnitude (brightness) estimate    
    ra:     right ascension in hours (24h = 360deg)
    dec:    declination in degrees
    elong:  elongation in degrees (angle sun-earth-minor planet)    
    phase:  phase angle in degrees (angle sun-minor planet-earth)        
    AU:     Astronomical Unit (mean distance between earth and sun: 149597870.7 km
    

Orbital elements provided by the MPC (Minor Planet Center).
Calculations by a modified version of AAPlus, a C# implementation of the AA+ project by PJ Naughter from the algorithms presented in the book "Astronomical Algorithms" by Jean Meeus.
NGC2000 dso catalog and star labels from VizieR as provided by the Strasbourg astronomical Data Center.
Tycho2 catalog from the ESO archive.